Tracking 29528 objects as of 12-Sep-2024
HD Live streaming from Space Station
objects crossing your sky now

FENGYUN 1C DEB

Track FENGYUN 1C DEB now!
10-day predictions


NORAD ID: 32156
Int'l Code: 1999-025CTA
Perigee: 738.8 km
Apogee: 858.4 km
Inclination: 99.3 °
Period: 100.7 minutes
Semi major axis: 7169 km
RCS: 0.0148 m2 (small)
Launch date: May 10, 1999
Source: People's Republic of China (PRC)
Launch site: Taiyaun Space Center, China (TSC)

Note: This is SATELLITE DEBRIS
Your satellite tracking list
Your tracking list is empty




NASA's NSSDC Master Catalog

Two Line Element Set (TLE):
1 32156U 99025CTA 24255.16620367  .00003472  00000-0  13125-2 0  9991
2 32156  99.3043  24.9751 0083400 294.7983  64.4538 14.30073004582751
Source of the keplerian elements: AFSPC